Вернуться в каталог

SL-12 R/B(2)

АктивенGEO
NORAD 23720·ROCKET BODY·🇷🇺 Russia

Запущен Nov 17, 1995 с Baikonur Cosmodrome

Loading…

TLE

СвежийSource: Space-Track

Эпоха: Aug 29, 2026, 18:28 UTC

1 23720U 95063D   26241.76973354  .00000128  00000-0  00000+0 0  9996
2 23720  14.1253 347.6038 0042310 196.8896 108.1238  1.00356567112729

Отслеживайте SL-12 R/B(2) в реальном времени с AllMySat

Download on the App Store